CDT,Max TemperatureF,Mean TemperatureF,Min TemperatureF,Max Dew PointF,MeanDew PointF,Min DewpointF,Max Humidity, Mean Humidity, Min Humidity, Max Sea Level PressureIn, Mean Sea Level PressureIn, Min Sea Level PressureIn, Max VisibilityMiles, Mean VisibilityMiles, Min VisibilityMiles, Max Wind SpeedMPH, Mean Wind SpeedMPH, Max Gust SpeedMPH,PrecipitationIn, CloudCover, Events, WindDirDegrees
2012-9-1,84,73,62,55,51,46,64,48,30,30.14,30.09,30.01,10,10,10,16,9,23,0.00,0,,107
2012-9-2,91,76,60,64,58,52,73,56,36,30.01,29.91,29.82,10,10,10,15,8,23,0.00,0,,150
2012-9-3,89,74,60,64,53,28,88,54,11,29.96,29.91,29.86,10,10,7,8,2,,0.00,0,,112
2012-9-4,89,74,60,61,50,28,94,49,11,29.88,29.84,29.77,10,9,0,15,7,28,0.00,0,Fog-Rain,302
2012-9-5,78,66,55,54,45,34,77,47,20,29.95,29.88,29.74,10,10,4,20,7,29,0.00,0,,312
2012-9-6,78,62,46,57,48,39,87,60,26,29.99,29.94,29.89,10,10,10,15,3,,0.01,1,Rain-Thunderstorm,53
2012-9-7,69,60,48,54,46,36,88,59,30,30.10,30.04,29.94,10,10,10,23,11,32,0.00,2,Thunderstorm,343
2012-9-8,77,60,42,46,41,34,87,54,22,30.11,30.01,29.90,10,10,10,31,10,41,0.00,1,,297
2012-9-9,75,60,44,50,45,37,93,60,27,30.24,30.16,30.08,10,10,10,8,5,,0.00,0,,298
2012-9-10,87,70,53,46,44,39,72,44,19,30.08,29.90,29.76,10,10,10,18,8,31,0.00,0,,167
2012-9-11,96,78,60,52,46,32,68,40,14,29.93,29.74,29.68,10,10,10,18,8,26,0.00,0,,186
2012-9-12,69,61,51,54,48,32,88,67,25,30.26,30.15,29.94,10,10,10,21,7,26,0.01,2,Rain,258
2012-9-13,77,59,41,48,30,12,93,45,9,30.35,30.30,30.25,10,10,4,16,3,18,0.00,0,,309
2012-9-14,77,64,50,37,32,25,62,33,14,30.35,30.29,30.23,10,10,10,13,7,20,0.00,0,,85
2012-9-15,89,68,46,45,38,30,76,39,13,30.22,30.07,29.94,10,10,10,16,7,24,0.00,0,,168
2012-9-16,82,70,57,50,43,36,72,43,21,30.02,29.94,29.90,10,10,10,21,7,29,0.00,0,Thunderstorm,353
2012-9-17,64,53,41,48,39,32,82,60,32,30.07,30.04,30.01,10,10,7,20,10,29,0.04,2,Rain-Thunderstorm,330
2012-9-18,60,46,33,41,33,27,93,60,27,30.08,30.01,29.84,10,10,10,10,4,,0.00,1,,266
2012-9-19,73,60,48,45,35,28,71,42,22,29.90,29.77,29.65,10,10,10,29,11,40,0.00,0,,277
2012-9-20,66,55,44,36,29,23,62,39,19,29.98,29.93,29.89,10,10,10,20,9,29,0.00,1,Rain,288
2012-9-21,66,55,44,43,34,16,76,46,22,29.99,29.88,29.84,10,10,10,26,9,34,0.00,2,Rain,337
2012-9-22,59,47,35,36,27,18,70,50,20,30.29,30.19,30.00,10,10,10,20,14,26,0.00,3,,317
2012-9-23,62,45,28,28,23,18,86,49,18,30.34,30.28,30.16,10,10,7,14,2,18,0.00,0,,298
2012-9-24,80,58,35,36,26,19,65,36,10,30.16,29.91,29.76,10,10,10,16,5,23,0.00,0,,248
2012-9-25,69,56,42,39,33,21,76,46,16,30.01,29.91,29.82,10,10,7,10,6,,0.00,0,,12
2012-9-26,64,52,39,37,31,25,87,52,22,30.23,30.13,30.01,10,10,2,10,5,,0.00,0,,22
2012-9-27,69,53,37,36,30,25,81,45,18,30.28,30.22,30.18,10,10,7,8,2,,0.00,0,,114
2012-9-28,80,61,42,39,30,16,76,40,9,30.22,30.17,30.12,10,10,7,7,3,,0.00,0,,188
2012-9-29,84,64,44,39,31,21,71,37,11,30.16,30.10,30.02,10,9,5,7,1,,0.00,0,,301
2012-9-30,86,67,48,45,35,25,82,43,11,30.05,29.96,29.88,10,10,5,12,2,,0.00,0,,157